Regional Weather Roundup
Issued by NWS

Home | Current Version | Previous Version | Text Only | Print | Product List | Glossary Off
Versions: 1 2 3 4 5 6 7 8 9 10 11 12 13 14 15 16 17 18 19 20 21 22 23 24 25 26 27 28 29 30 31 32 33 34 35 36 37 38 39 40 41 42 43 44 45 46 47 48 49 50

000
ASUS43 KBIS 230110
RWRND
NORTH DAKOTA REGIONAL WEATHER ROUNDUP
NATIONAL WEATHER SERVICE EASTERN NORTH DAKOTA/GRAND FORKS ND
800 PM CDT MON MAY 22 2017

  NOTE: "FAIR" INDICATES FEW OR NO CLOUDS BELOW 12,000 FEET WITH NO
  SIGNIFICANT WEATHER AND/OR OBSTRUCTIONS TO VISIBILITY.

NDZ001>003-009>011-017-230200-
...NORTHWEST NORTH DAKOTA...

CITY           SKY/WX    TMP DP  RH WIND       PRES   REMARKS
WILLISTON      CLOUDY    66  34  30 N12       30.07R
MINOT          CLOUDY    61  31  32 N24       30.01R
MINOT AFB      CLOUDY    60  33  35 NE18G28   30.01R
$$

NDZ018>021-031>035-040>046-230200-
...SOUTHWEST NORTH DAKOTA...

CITY           SKY/WX    TMP DP  RH WIND       PRES   REMARKS
BISMARCK       CLOUDY    62  38  40 NW10      29.98F
DICKINSON      CLOUDY    58  33  39 N12       30.04R
GARRISON         N/A     59  34  39 NE13      29.99R
HETTINGER      FAIR      58  35  42 N16       30.06F
$$

NDZ004>008-012>016-024-026-027-054-230200-
...NORTHEAST NORTH DAKOTA...

CITY           SKY/WX    TMP DP  RH WIND       PRES   REMARKS
GRAND FORKS    CLOUDY    52  48  86 N14       29.89R
GRAND FORKS AF CLOUDY    51  46  82 N15       29.90R
DEVILS LAKE    CLOUDY    50  43  77 N15       29.97R
$$

NDZ022-023-025-028>030-036>039-047>053-230200-
...SOUTHEAST NORTH DAKOTA...

CITY           SKY/WX    TMP DP  RH WIND       PRES   REMARKS
JAMESTOWN      LGT RAIN  50  45  83 N12       29.94R
FARGO          LGT RAIN  50  47  89 N10       29.88R
WAHPETON       MOCLDY    50  39  66 NW13      29.88S
$$




USA.gov is the U.S. government's official web portal to all federal, state and local government web resources and services.